When you browse on this site, cookies collect data to enhance your experience and personalize the content and advertising you see.
Visit our Privacy Policy to learn more. By continuing to use the site, you agree to this use of cookies and data.
  • în România
  • Lista ţărilor
  • Pe 7 zile
  • Temperatura apei
  • Hartă satelitară
  • Meteo pe hartă
  • Widget-uri
  • user-avatar
    Intrare

    Meteo pe oră la Haro

    Astăzi, 17 Februarie, Duminică

    Timp Temperatura Precipitaţii Vânt Presiune Umiditate
    00:00 +8°C° 0 mm 3 m/s 724 mmHg 50%
    01:00 +7°C° 0 mm 3 m/s 724 mmHg 52%
    02:00 +6°C° 0 mm 2 m/s 724 mmHg 53%
    03:00 +6°C° 0 mm 2 m/s 724 mmHg 54%
    04:00 +5°C° 0 mm 2 m/s 724 mmHg 55%
    05:00 +5°C° 0 mm 2 m/s 724 mmHg 55%
    06:00 +5°C° 0 mm 2 m/s 723 mmHg 55%
    07:00 +6°C° 0 mm 2 m/s 724 mmHg 52%
    08:00 +7°C° 0 mm 2 m/s 724 mmHg 50%
    09:00 +8°C° 0 mm 2 m/s 724 mmHg 47%
    10:00 +10°C° 0 mm 2 m/s 723 mmHg 42%
    11:00 +12°C° 0 mm 3 m/s 723 mmHg 37%
    12:00 +14°C° 0 mm 3 m/s 723 mmHg 32%
    13:00 +16°C° 0 mm 3 m/s 722 mmHg 30%
    14:00 +17°C° 0 mm 3 m/s 722 mmHg 29%
    15:00 +17°C° 0 mm 4 m/s 721 mmHg 28%
    16:00 +14°C° 0 mm 3 m/s 721 mmHg 33%
    17:00 +12°C° 0 mm 3 m/s 721 mmHg 38%
    18:00 +10°C° 0 mm 3 m/s 720 mmHg 43%
    19:00 +9°C° 0 mm 3 m/s 720 mmHg 46%
    20:00 +9°C° 0 mm 3 m/s 721 mmHg 50%
    21:00 +8°C° 0 mm 2 m/s 721 mmHg 53%
    22:00 +7°C° 0 mm 2 m/s 721 mmHg 56%
    23:00 +7°C° 0 mm 2 m/s 721 mmHg 59%

    Mâine, 18 Februarie, Luni

    Timp Temperatura Precipitaţii Vânt Presiune Umiditate
    00:00 +6°C° 0 mm 2 m/s 721 mmHg 62%
    01:00 +6°C° 0 mm 2 m/s 721 mmHg 66%
    02:00 +6°C° 0 mm 2 m/s 720 mmHg 69%
    03:00 +5°C° 0 mm 2 m/s 720 mmHg 73%
    04:00 +5°C° 0 mm 2 m/s 720 mmHg 75%
    05:00 +5°C° 0 mm 2 m/s 720 mmHg 77%
    06:00 +4°C° 0 mm 2 m/s 720 mmHg 80%
    07:00 +5°C° 0 mm 2 m/s 721 mmHg 77%
    08:00 +6°C° 0 mm 2 m/s 721 mmHg 74%
    09:00 +7°C° 0 mm 2 m/s 721 mmHg 70%
    10:00 +9°C° 0 mm 3 m/s 721 mmHg 64%
    11:00 +11°C° 0 mm 3 m/s 721 mmHg 58%
    12:00 +13°C° 0 mm 3 m/s 721 mmHg 52%
    13:00 +13°C° 0 mm 3 m/s 721 mmHg 50%
    14:00 +14°C° 0 mm 3 m/s 721 mmHg 48%
    15:00 +14°C° 0 mm 4 m/s 720 mmHg 46%
    16:00 +13°C° 0 mm 3 m/s 720 mmHg 53%
    17:00 +11°C° 0 mm 3 m/s 720 mmHg 59%
    18:00 +9°C° 0 mm 2 m/s 721 mmHg 66%
    19:00 +8°C° 0 mm 2 m/s 721 mmHg 70%
    20:00 +8°C° 0 mm 1 m/s 721 mmHg 74%
    21:00 +8°C° 0 mm 1 m/s 722 mmHg 79%
    22:00 +7°C° 0 mm 1 m/s 722 mmHg 81%
    23:00 +7°C° 0 mm 1 m/s 722 mmHg 83%

    Poimâine, 19 Februarie, Marţi

    Timp Temperatura Precipitaţii Vânt Presiune Umiditate
    00:00 +7°C° 0 mm 1 m/s 722 mmHg 85%
    01:00 +5°C° 0 mm 0 m/s 722 mmHg 86%
    02:00 +5°C° 0 mm 0 m/s 722 mmHg 87%
    03:00 +5°C° 0 mm 0 m/s 723 mmHg 87%
    04:00 +4°C° 0 mm 0 m/s 722 mmHg 87%
    05:00 +4°C° 0 mm 0 m/s 722 mmHg 86%
    06:00 +4°C° 0 mm 0 m/s 722 mmHg 85%
    07:00 +5°C° 0 mm 0 m/s 723 mmHg 79%
    08:00 +7°C° 0 mm 1 m/s 723 mmHg 74%
    09:00 +9°C° 0 mm 1 m/s 724 mmHg 68%
    10:00 +10°C° 0 mm 1 m/s 724 mmHg 62%
    11:00 +12°C° 0 mm 2 m/s 724 mmHg 56%
    12:00 +14°C° 0 mm 2 m/s 723 mmHg 50%
    13:00 +14°C° 0 mm 2 m/s 723 mmHg 49%
    14:00 +15°C° 0 mm 2 m/s 723 mmHg 48%
    15:00 +15°C° 0 mm 2 m/s 722 mmHg 48%
    16:00 +13°C° 0 mm 2 m/s 722 mmHg 54%
    17:00 +12°C° 0 mm 2 m/s 722 mmHg 60%
    18:00 +9°C° 0 mm 2 m/s 722 mmHg 66%
    19:00 +8°C° 0 mm 2 m/s 722 mmHg 67%
    20:00 +8°C° 0 mm 2 m/s 722 mmHg 68%
    21:00 +8°C° 0 mm 1 m/s 723 mmHg 68%
    22:00 +8°C° 0 mm 1 m/s 723 mmHg 68%
    23:00 +8°C° 0 mm 1 m/s 723 mmHg 67%

    20 Februarie, Miercuri

    Timp Temperatura Precipitaţii Vânt Presiune Umiditate
    00:00 +7°C° 0 mm 1 m/s 723 mmHg 67%
    01:00 +7°C° 0 mm 1 m/s 723 mmHg 66%
    02:00 +7°C° 0 mm 1 m/s 723 mmHg 65%
    03:00 +7°C° 0 mm 1 m/s 723 mmHg 64%
    04:00 +7°C° 0 mm 1 m/s 723 mmHg 64%
    05:00 +6°C° 0 mm 1 m/s 723 mmHg 64%
    06:00 +6°C° 0 mm 1 m/s 723 mmHg 64%
    07:00 +7°C° 0 mm 1 m/s 724 mmHg 61%
    08:00 +9°C° 0 mm 1 m/s 724 mmHg 59%
    09:00 +10°C° 0 mm 1 m/s 725 mmHg 57%
    10:00 +12°C° 0 mm 1 m/s 725 mmHg 53%
    11:00 +13°C° 0 mm 2 m/s 725 mmHg 49%
    12:00 +15°C° 0 mm 2 m/s 725 mmHg 45%
    13:00 +15°C° 0 mm 2 m/s 725 mmHg 45%
    14:00 +16°C° 0 mm 2 m/s 725 mmHg 45%
    15:00 +16°C° 0 mm 2 m/s 724 mmHg 46%
    16:00 +14°C° 0 mm 2 m/s 724 mmHg 52%
    17:00 +13°C° 0 mm 2 m/s 724 mmHg 59%
    18:00 +10°C° 0 mm 2 m/s 724 mmHg 66%
    19:00 +9°C° 0 mm 2 m/s 725 mmHg 68%
    20:00 +9°C° 0 mm 2 m/s 725 mmHg 70%
    21:00 +9°C° 0 mm 1 m/s 725 mmHg 71%
    22:00 +8°C° 0 mm 2 m/s 726 mmHg 71%
    23:00 +7°C° 0 mm 2 m/s 726 mmHg 71%

    21 Februarie, Joi

    Timp Temperatura Precipitaţii Vânt Presiune Umiditate
    00:00 +7°C° 0 mm 2 m/s 726 mmHg 71%
    01:00 +7°C° 0 mm 2 m/s 726 mmHg 71%
    02:00 +6°C° 0 mm 2 m/s 726 mmHg 71%
    03:00 +6°C° 0 mm 2 m/s 726 mmHg 71%
    04:00 +6°C° 0 mm 2 m/s 726 mmHg 72%
    05:00 +6°C° 0 mm 2 m/s 726 mmHg 72%
    06:00 +5°C° 0 mm 2 m/s 726 mmHg 72%
    07:00 +6°C° 0 mm 2 m/s 726 mmHg 69%
    08:00 +8°C° 0 mm 2 m/s 727 mmHg 65%
    09:00 +9°C° 0 mm 2 m/s 727 mmHg 62%
    10:00 +12°C° 0 mm 2 m/s 727 mmHg 56%
    11:00 +13°C° 0 mm 2 m/s 727 mmHg 51%
    12:00 +15°C° 0 mm 2 m/s 727 mmHg 45%
    13:00 +16°C° 0 mm 2 m/s 727 mmHg 44%
    14:00 +16°C° 0 mm 3 m/s 727 mmHg 43%
    15:00 +17°C° 0 mm 3 m/s 727 mmHg 42%
    16:00 +14°C° 0 mm 3 m/s 727 mmHg 49%
    17:00 +13°C° 0 mm 2 m/s 727 mmHg 55%
    18:00 +10°C° 0 mm 2 m/s 727 mmHg 61%
    19:00 +10°C° 0 mm 2 m/s 727 mmHg 61%
    20:00 +9°C° 0 mm 2 m/s 728 mmHg 61%
    21:00 +8°C° 0 mm 2 m/s 728 mmHg 61%
    22:00 +8°C° 0 mm 2 m/s 728 mmHg 61%
    23:00 +7°C° 0 mm 2 m/s 729 mmHg 61%

    22 Februarie, Vineri

    Timp Temperatura Precipitaţii Vânt Presiune Umiditate
    00:00 +8°C° 0 mm 1 m/s 729 mmHg 60%
    01:00 +8°C° 0 mm 1 m/s 729 mmHg 60%
    02:00 +8°C° 0 mm 1 m/s 728 mmHg 60%
    03:00 +7°C° 0 mm 1 m/s 728 mmHg 60%
    04:00 +7°C° 0 mm 1 m/s 728 mmHg 60%
    05:00 +7°C° 0 mm 1 m/s 728 mmHg 60%
    06:00 +6°C° 0 mm 1 m/s 728 mmHg 60%
    07:00 +8°C° 0 mm 1 m/s 729 mmHg 56%
    08:00 +9°C° 0 mm 1 m/s 729 mmHg 53%
    09:00 +11°C° 0 mm 1 m/s 729 mmHg 49%
    10:00 +13°C° 0 mm 1 m/s 729 mmHg 44%
    11:00 +15°C° 0 mm 1 m/s 729 mmHg 38%
    12:00 +18°C° 0 mm 1 m/s 729 mmHg 32%
    13:00 +19°C° 0 mm 1 m/s 729 mmHg 31%
    14:00 +20°C° 0 mm 1 m/s 728 mmHg 30%
    15:00 +20°C° 0 mm 1 m/s 728 mmHg 29%
    16:00 +18°C° 0 mm 1 m/s 728 mmHg 36%
    17:00 +15°C° 0 mm 1 m/s 727 mmHg 42%
    18:00 +13°C° 0 mm 1 m/s 727 mmHg 49%
    19:00 +12°C° 0 mm 1 m/s 727 mmHg 49%
    20:00 +11°C° 0 mm 1 m/s 728 mmHg 50%
    21:00 +10°C° 0 mm 2 m/s 728 mmHg 51%
    22:00 +9°C° 0 mm 2 m/s 728 mmHg 50%
    23:00 +9°C° 0 mm 2 m/s 728 mmHg 48%
    Arată mai mult